| time (UTC) | temp F | wind direction | speed MPH | gust MPH | rain 1hr in | rain 24hr in | rain mn in | humidity % | barometer mb |
| 20260901005755 | 86 | 243 | 1.0 | 2.0 | 0.00 | 0.07 | 0.07 | 80 | 1014.5 |
| 20260901005251 | 86 | 180 | 0.0 | 0.0 | 0.00 | 0.07 | 0.07 | 80 | 1014.7 |
| 20260901004750 | 87 | 224 | 0.0 | 0.0 | 0.00 | 0.07 | 0.07 | 80 | 1014.6 |
| 20260901004246 | 87 | 230 | 0.0 | 2.0 | 0.00 | 0.07 | 0.07 | 80 | 1014.7 |
| 20260901003745 | 87 | 129 | 0.0 | 1.0 | 0.00 | 0.07 | 0.07 | 80 | 1014.5 |
| 20260901003239 | 87 | 217 | 0.0 | 1.0 | 0.00 | 0.07 | 0.07 | 79 | 1014.9 |
| 20260901002732 | 87 | 224 | 1.0 | 2.0 | 0.00 | 0.07 | 0.07 | 79 | 1014.8 |
| 20260901002228 | 87 | 246 | 1.0 | 2.0 | 0.00 | 0.07 | 0.07 | 79 | 1014.7 |
| 20260901001723 | 88 | 255 | 0.0 | 1.0 | 0.00 | 0.07 | 0.07 | 79 | 1014.7 |
| 20260901001218 | 88 | 343 | 0.0 | 2.0 | 0.00 | 0.07 | 0.07 | 77 | 1014.7 |
| 20260901000714 | 88 | 246 | 2.0 | 2.0 | 0.00 | 0.07 | 0.07 | 77 | 1014.7 |
| 20260901000211 | 88 | 242 | 0.0 | 1.0 | 0.00 | 0.07 | 0.07 | 76 | 1014.8 |
| 20260831235702 | 88 | 141 | 0.0 | 5.0 | 0.00 | 0.07 | 0.07 | 76 | 1014.6 |
| 20260831235158 | 88 | 283 | 0.0 | 2.0 | 0.00 | 0.07 | 0.07 | 76 | 1014.7 |
| 20260831234657 | 89 | 144 | 0.0 | 3.0 | 0.00 | 0.07 | 0.07 | 75 | 1014.7 |
| 20260831234152 | 89 | 243 | 1.0 | 2.0 | 0.00 | 0.07 | 0.07 | 75 | 1014.8 |
| 20260831233648 | 89 | 242 | 0.0 | 5.0 | 0.00 | 0.07 | 0.07 | 75 | 1014.9 |
| 20260831233143 | 89 | 232 | 0.0 | 2.0 | 0.00 | 0.07 | 0.07 | 75 | 1014.8 |
| 20260831232638 | 89 | 229 | 1.0 | 3.0 | 0.00 | 0.07 | 0.07 | 76 | 1014.9 |
| 20260831232134 | 89 | 269 | 0.0 | 3.0 | 0.00 | 0.07 | 0.07 | 75 | 1014.9 |
| 20260831231630 | 89 | 158 | 2.0 | 2.0 | 0.00 | 0.07 | 0.07 | 76 | 1014.6 |
| 20260831231126 | 89 | 255 | 0.0 | 2.0 | 0.00 | 0.07 | 0.07 | 76 | 1014.9 |
| 20260831230621 | 89 | 116 | 0.0 | 3.0 | 0.00 | 0.07 | 0.07 | 78 | 1014.8 |
| 20260831230121 | 89 | 158 | 2.0 | 4.0 | 0.00 | 0.07 | 0.07 | 77 | 1015.0 |
| 20260831225616 | 89 | 144 | 2.0 | 5.0 | 0.00 | 0.07 | 0.07 | 76 | 1014.8 |
| 20260831225111 | 90 | 160 | 2.0 | 4.0 | 0.00 | 0.07 | 0.07 | 75 | 1015.0 |
| 20260831224606 | 91 | 165 | 2.0 | 4.0 | 0.00 | 0.07 | 0.07 | 75 | 1014.8 |
| 20260831224101 | 90 | 166 | 0.0 | 3.0 | 0.00 | 0.07 | 0.07 | 76 | 1015.1 |
| 20260831223557 | 91 | 112 | 3.0 | 5.0 | 0.00 | 0.07 | 0.07 | 74 | 1015.0 |
| 20260831223053 | 90 | 181 | 1.0 | 5.0 | 0.00 | 0.07 | 0.07 | 77 | 1015.1 |
| 20260831222549 | 91 | 244 | 1.0 | 2.0 | 0.00 | 0.07 | 0.07 | 76 | 1015.0 |
| 20260831222048 | 89 | 130 | 1.0 | 3.0 | 0.00 | 0.07 | 0.07 | 80 | 1015.1 |
| 20260831221544 | 89 | 224 | 0.0 | 2.0 | 0.00 | 0.07 | 0.07 | 80 | 1015.0 |
| 20260831221039 | 88 | 247 | 2.0 | 4.0 | 0.00 | 0.07 | 0.07 | 81 | 1015.0 |
| 20260831220534 | 87 | 162 | 2.0 | 3.0 | 0.00 | 0.07 | 0.07 | 83 | 1015.1 |
| 20260831220030 | 87 | 124 | 1.0 | 3.0 | 0.00 | 0.07 | 0.07 | 84 | 1015.1 |
| 20260831215525 | 87 | 124 | 0.0 | 4.0 | 0.00 | 0.07 | 0.07 | 85 | 1015.5 |
| 20260831215021 | 87 | 169 | 0.0 | 2.0 | 0.00 | 0.07 | 0.07 | 85 | 1015.1 |
| 20260831214518 | 86 | 246 | 0.0 | 1.0 | 0.00 | 0.07 | 0.07 | 85 | 1015.1 |
| 20260831214014 | 86 | 224 | 0.0 | 3.0 | 0.00 | 0.07 | 0.07 | 84 | 1015.4 |
| 20260831213510 | 86 | 75 | 0.0 | 3.0 | 0.00 | 0.07 | 0.07 | 84 | 1015.3 |
| 20260831213010 | 86 | 243 | 2.0 | 3.0 | 0.00 | 0.07 | 0.07 | 82 | 1015.7 |
| 20260831212507 | 86 | 222 | 1.0 | 2.0 | 0.00 | 0.07 | 0.07 | 82 | 1015.7 |
| 20260831212001 | 85 | 315 | 0.0 | 2.0 | 0.00 | 0.07 | 0.07 | 84 | 1015.9 |
| 20260831211456 | 85 | 243 | 0.0 | 1.0 | 0.00 | 0.07 | 0.07 | 84 | 1015.6 |
| 20260831210955 | 85 | 304 | 0.0 | 2.0 | 0.00 | 0.07 | 0.07 | 86 | 1015.9 |
| 20260831210450 | 84 | 225 | 2.0 | 2.0 | 0.00 | 0.07 | 0.07 | 87 | 1016.0 |
| 20260831205946 | 84 | 292 | 0.0 | 2.0 | 0.00 | 0.07 | 0.07 | 87 | 1015.9 |
| 20260831205441 | 83 | 231 | 1.0 | 4.0 | 0.00 | 0.07 | 0.07 | 89 | 1016.0 |
| 20260831204937 | 83 | 269 | 0.0 | 5.0 | 0.00 | 0.07 | 0.07 | 91 | 1016.0 |
| 20260831204437 | 83 | 338 | 0.0 | 3.0 | 0.00 | 0.07 | 0.07 | 90 | 1016.1 |
| 20260831203936 | 83 | 251 | 3.0 | 4.0 | 0.00 | 0.07 | 0.07 | 89 | 1016.2 |
| 20260831203430 | 84 | 229 | 0.0 | 2.0 | 0.05 | 0.07 | 0.07 | 89 | 1016.3 |
| 20260831202928 | 83 | 227 | 1.0 | 2.0 | 0.05 | 0.07 | 0.07 | 89 | 1016.4 |
| 20260831202424 | 84 | 252 | 1.0 | 5.0 | 0.02 | 0.07 | 0.07 | 88 | 1016.5 |
| 20260831201918 | 86 | 255 | 3.0 | 7.0 | 0.00 | 0.06 | 0.06 | 87 | 1016.3 |
| 20260831201416 | 90 | 157 | 3.0 | 7.0 | 0.00 | 0.06 | 0.06 | 79 | 1016.0 |
| 20260831200913 | 94 | 244 | 2.0 | 3.0 | 0.00 | 0.06 | 0.06 | 70 | 1016.3 |
| 20260831200408 | 94 | 261 | 0.0 | 4.0 | 0.00 | 0.06 | 0.06 | 76 | 1016.4 |
| 20260831195907 | 94 | 288 | 0.0 | 3.0 | 0.00 | 0.06 | 0.06 | 73 | 1016.3 |
| 20260831195403 | 94 | 297 | 0.0 | 2.0 | 0.00 | 0.06 | 0.06 | 69 | 1016.4 |
| 20260831194859 | 94 | 302 | 2.0 | 3.0 | 0.00 | 0.06 | 0.06 | 72 | 1016.7 |
| 20260831194354 | 93 | 312 | 1.0 | 3.0 | 0.00 | 0.06 | 0.06 | 71 | 1016.3 |
| 20260831193853 | 93 | 228 | 1.0 | 4.0 | 0.00 | 0.06 | 0.06 | 75 | 1016.6 |
| 20260831193348 | 92 | 279 | 1.0 | 3.0 | 0.00 | 0.06 | 0.06 | 74 | 1016.4 |
| 20260831192843 | 93 | 214 | 1.0 | 3.0 | 0.00 | 0.06 | 0.06 | 74 | 1016.6 |
| 20260831192338 | 91 | 339 | 0.0 | 5.0 | 0.00 | 0.06 | 0.06 | 78 | 1016.7 |
| 20260831191834 | 90 | 269 | 0.0 | 3.0 | 0.00 | 0.06 | 0.06 | 80 | 1016.7 |
| 20260831191330 | 90 | 324 | 1.0 | 5.0 | 0.00 | 0.06 | 0.06 | 79 | 1016.5 |
| 20260831190826 | 89 | 303 | 1.0 | 4.0 | 0.00 | 0.06 | 0.06 | 79 | 1017.0 |
| 20260831190325 | 86 | 329 | 0.0 | 3.0 | 0.00 | 0.06 | 0.06 | 83 | 1017.0 |
| 20260831185825 | 86 | 22 | 0.0 | 7.0 | 0.00 | 0.06 | 0.06 | 85 | 1017.0 |
| 20260831185321 | 86 | 354 | 0.0 | 6.0 | 0.00 | 0.06 | 0.06 | 83 | 1017.2 |
| 20260831184820 | 86 | 7 | 1.0 | 7.0 | 0.00 | 0.06 | 0.06 | 83 | 1017.1 |
| 20260831184315 | 86 | 329 | 0.0 | 8.0 | 0.00 | 0.06 | 0.06 | 83 | 1017.0 |
| 20260831183811 | 88 | 331 | 2.0 | 9.0 | 0.00 | 0.06 | 0.06 | 81 | 1017.0 |
| 20260831183310 | 90 | 273 | 2.0 | 6.0 | 0.00 | 0.06 | 0.06 | 79 | 1017.3 |
| 20260831182809 | 89 | 279 | 5.0 | 6.0 | 0.00 | 0.06 | 0.06 | 80 | 1017.3 |
| 20260831182305 | 89 | 303 | 3.0 | 5.0 | 0.00 | 0.06 | 0.06 | 80 | 1017.3 |
| 20260831181759 | 89 | 316 | 0.0 | 4.0 | 0.00 | 0.06 | 0.06 | 81 | 1017.3 |
| 20260831181254 | 89 | 338 | 1.0 | 6.0 | 0.00 | 0.06 | 0.06 | 81 | 1017.3 |
| 20260831180749 | 88 | 293 | 3.0 | 5.0 | 0.00 | 0.06 | 0.06 | 83 | 1017.4 |
| 20260831180244 | 88 | 290 | 3.0 | 11.0 | 0.00 | 0.06 | 0.06 | 85 | 1017.6 |
| 20260831175743 | 89 | 298 | 1.0 | 8.0 | 0.00 | 0.06 | 0.06 | 85 | 1017.7 |
| 20260831175239 | 89 | 22 | 0.0 | 3.0 | 0.00 | 0.06 | 0.06 | 83 | 1017.4 |
| 20260831174735 | 88 | 276 | 2.0 | 5.0 | 0.00 | 0.06 | 0.06 | 86 | 1017.5 |
| 20260831174230 | 85 | 259 | 1.0 | 4.0 | 0.00 | 0.06 | 0.06 | 92 | 1017.7 |
| 20260831173729 | 84 | 275 | 3.0 | 5.0 | 0.00 | 0.06 | 0.06 | 96 | 1017.6 |
| 20260831173224 | 82 | 348 | 0.0 | 3.0 | 0.00 | 0.06 | 0.06 | 97 | 1017.8 |
| 20260831172719 | 81 | 17 | 0.0 | 4.0 | 0.02 | 0.06 | 0.06 | 97 | 1017.9 |
| 20260831172214 | 81 | 223 | 1.0 | 2.0 | 0.02 | 0.06 | 0.06 | 96 | 1017.9 |
| 20260831171708 | 81 | 225 | 0.0 | 3.0 | 0.35 | 0.06 | 0.06 | 96 | 1017.9 |
| 20260831171206 | 83 | 195 | 3.0 | 12.0 | 0.07 | 0.01 | 0.01 | 93 | 1017.9 |
| 20260831170702 | 88 | 172 | 2.0 | 6.0 | 0.00 | 0.00 | 0.00 | 82 | 1017.9 |
| 20260831170159 | 89 | 128 | 3.0 | 6.0 | 0.00 | 0.00 | 0.00 | 79 | 1017.9 |
| 20260831165654 | 89 | 230 | 1.0 | 2.0 | 0.00 | 0.00 | 0.00 | 79 | 1017.8 |
| 20260831165151 | 89 | 321 | 0.0 | 3.0 | 0.00 | 0.00 | 0.00 | 79 | 1017.6 |
| 20260831164646 | 89 | 255 | 0.0 | 5.0 | 0.00 | 0.00 | 0.00 | 79 | 1017.9 |
| 20260831164142 | 89 | 299 | 0.0 | 3.0 | 0.00 | 0.00 | 0.00 | 77 | 1018.0 |
| 20260831163637 | 90 | 255 | 0.0 | 2.0 | 0.00 | 0.00 | 0.00 | 78 | 1017.7 |
| 20260831163133 | 89 | 100 | 1.0 | 3.0 | 0.00 | 0.00 | 0.00 | 77 | 1017.7 |
| 20260831162632 | 89 | 203 | 1.0 | 3.0 | 0.00 | 0.00 | 0.00 | 78 | 1017.9 |
| 20260831162129 | 89 | 228 | 0.0 | 2.0 | 0.00 | 0.00 | 0.00 | 79 | 1018.0 |
| 20260831161626 | 90 | 316 | 1.0 | 2.0 | 0.00 | 0.00 | 0.00 | 76 | 1017.9 |
| 20260831161122 | 90 | 286 | 1.0 | 3.0 | 0.00 | 0.00 | 0.00 | 76 | 1018.0 |
| 20260831160621 | 92 | 297 | 0.0 | 5.0 | 0.00 | 0.00 | 0.00 | 75 | 1018.0 |
| 20260831160117 | 94 | 258 | 1.0 | 2.0 | 0.00 | 0.00 | 0.00 | 75 | 1017.8 |
| 20260831155611 | 93 | 269 | 0.0 | 3.0 | 0.00 | 0.00 | 0.00 | 74 | 1017.9 |
| 20260831155107 | 92 | 180 | 1.0 | 4.0 | 0.00 | 0.00 | 0.00 | 76 | 1017.7 |
| 20260831154603 | 90 | 189 | 2.0 | 3.0 | 0.00 | 0.00 | 0.00 | 79 | 1017.8 |
| 20260831154102 | 91 | 230 | 0.0 | 6.0 | 0.00 | 0.00 | 0.00 | 79 | 1017.8 |
| 20260831153601 | 91 | 173 | 0.0 | 3.0 | 0.00 | 0.00 | 0.00 | 77 | 1018.0 |
| 20260831153059 | 90 | 126 | 3.0 | 5.0 | 0.00 | 0.00 | 0.00 | 79 | 1017.9 |
| 20260831152553 | 90 | 202 | 2.0 | 5.0 | 0.00 | 0.00 | 0.00 | 81 | 1018.0 |
| 20260831152049 | 90 | 175 | 2.0 | 4.0 | 0.00 | 0.00 | 0.00 | 81 | 1017.9 |
| 20260831151548 | 91 | 133 | 0.0 | 3.0 | 0.00 | 0.00 | 0.00 | 79 | 1017.9 |
| 20260831151043 | 91 | 318 | 0.0 | 2.0 | 0.00 | 0.00 | 0.00 | 78 | 1017.8 |
| 20260831150538 | 89 | 102 | 0.0 | 3.0 | 0.00 | 0.00 | 0.00 | 82 | 1017.8 |
| 20260831150034 | 88 | 269 | 0.0 | 2.0 | 0.00 | 0.00 | 0.00 | 84 | 1018.0 |
| 20260831145528 | 87 | 321 | 0.0 | 2.0 | 0.00 | 0.00 | 0.00 | 84 | 1017.9 |
| 20260831145025 | 85 | 321 | 0.0 | 2.0 | 0.00 | 0.00 | 0.00 | 86 | 1018.0 |
| 20260831144520 | 84 | 298 | 0.0 | 2.0 | 0.00 | 0.00 | 0.00 | 88 | 1017.6 |
| 20260831144015 | 84 | 293 | 0.0 | 2.0 | 0.00 | 0.00 | 0.00 | 89 | 1017.9 |
| 20260831143510 | 84 | 180 | 1.0 | 1.0 | 0.00 | 0.00 | 0.00 | 90 | 1017.7 |
| 20260831143005 | 84 | 247 | 1.0 | 1.0 | 0.00 | 0.00 | 0.00 | 91 | 1017.8 |
| 20260831142502 | 83 | 0 | 0.0 | 1.0 | 0.00 | 0.00 | 0.00 | 92 | 1017.8 |
| 20260831141956 | 83 | 205 | 0.0 | 1.0 | 0.00 | 0.00 | 0.00 | 92 | 1017.4 |
| 20260831141455 | 82 | 195 | 0.0 | 1.0 | 0.00 | 0.00 | 0.00 | 93 | 1017.6 |
| 20260831140950 | 82 | 242 | 0.0 | 2.0 | 0.00 | 0.00 | 0.00 | 93 | 1017.9 |
| 20260831140444 | 82 | 296 | 0.0 | 1.0 | 0.00 | 0.00 | 0.00 | 94 | 1017.7 |
| 20260831135943 | 81 | 242 | 0.0 | 1.0 | 0.00 | 0.00 | 0.00 | 95 | 1017.8 |
| 20260831135442 | 81 | 338 | 0.0 | 2.0 | 0.00 | 0.00 | 0.00 | 95 | 1017.6 |
| 20260831134938 | 81 | 305 | 0.0 | 1.0 | 0.00 | 0.00 | 0.00 | 96 | 1017.6 |
| 20260831134429 | 80 | 22 | 0.0 | 1.0 | 0.00 | 0.00 | 0.00 | 96 | 1017.4 |
| 20260831133928 | 80 | 0 | 0.0 | 0.0 | 0.00 | 0.00 | 0.00 | 97 | 1017.4 |
| 20260831133428 | 80 | 199 | 0.0 | 0.0 | 0.00 | 0.00 | 0.00 | 97 | 1017.3 |
| 20260831132924 | 80 | 164 | 0.0 | 0.0 | 0.00 | 0.00 | 0.00 | 98 | 1017.2 |
| 20260831132419 | 79 | 217 | 0.0 | 2.0 | 0.00 | 0.00 | 0.00 | 99 | 1017.3 |
| 20260831131919 | 79 | 264 | 0.0 | 1.0 | 0.00 | 0.00 | 0.00 | 99 | 1017.2 |
| 20260831131414 | 78 | 297 | 0.0 | 1.0 | 0.00 | 0.00 | 0.00 | 99 | 1017.1 |
| 20260831130909 | 78 | 315 | 0.0 | 1.0 | 0.00 | 0.00 | 0.00 | 99 | 1017.0 |
| 20260831130405 | 78 | 217 | 0.0 | 0.0 | 0.00 | 0.00 | 0.00 | 99 | 1017.0 |
| 20260831125904 | 78 | 217 | 0.0 | 0.0 | 0.00 | 0.00 | 0.00 | 99 | 1016.9 |
| 20260831125359 | 78 | 135 | 0.0 | 0.0 | 0.00 | 0.00 | 0.00 | 99 | 1016.5 |
| 20260831124854 | 78 | 135 | 0.0 | 0.0 | 0.00 | 0.00 | 0.00 | 99 | 1016.7 |
| 20260831124350 | 78 | 135 | 0.0 | 0.0 | 0.00 | 0.00 | 0.00 | 99 | 1016.8 |
| 20260831123845 | 78 | 255 | 0.0 | 1.0 | 0.00 | 0.00 | 0.00 | 99 | 1016.5 |
| 20260831123344 | 78 | 217 | 0.0 | 1.0 | 0.00 | 0.00 | 0.00 | 99 | 1016.5 |
| 20260831122839 | 78 | 142 | 0.0 | 1.0 | 0.00 | 0.00 | 0.00 | 99 | 1016.3 |
| 20260831122334 | 78 | 244 | 0.0 | 1.0 | 0.00 | 0.00 | 0.00 | 99 | 1016.4 |
| 20260831121834 | 78 | 0 | 0.0 | 1.0 | 0.00 | 0.00 | 0.00 | 99 | 1016.5 |
| 20260831121330 | 77 | 37 | 0.0 | 1.0 | 0.00 | 0.00 | 0.00 | 99 | 1016.5 |
| 20260831120825 | 78 | 333 | 0.0 | 1.0 | 0.00 | 0.00 | 0.00 | 99 | 1016.2 |
| 20260831120314 | 77 | 311 | 0.0 | 2.0 | 0.00 | 0.00 | 0.00 | 99 | 1016.3 |
| 20260831115809 | 77 | 55 | 0.0 | 1.0 | 0.00 | 0.00 | 0.00 | 99 | 1016.3 |
| 20260831115306 | 77 | 191 | 0.0 | 1.0 | 0.00 | 0.00 | 0.00 | 99 | 1016.3 |
| 20260831114805 | 77 | 315 | 0.0 | 0.0 | 0.00 | 0.00 | 0.00 | 99 | 1016.2 |
| 20260831114304 | 77 | 102 | 0.0 | 2.0 | 0.00 | 0.00 | 0.00 | 99 | 1016.2 |
| 20260831113800 | 77 | 10 | 0.0 | 1.0 | 0.00 | 0.00 | 0.00 | 99 | 1015.9 |
| 20260831113259 | 77 | 32 | 0.0 | 0.0 | 0.00 | 0.00 | 0.00 | 99 | 1016.1 |
| 20260831112754 | 77 | 315 | 0.0 | 1.0 | 0.00 | 0.00 | 0.00 | 99 | 1016.1 |
| 20260831112249 | 77 | 335 | 0.0 | 1.0 | 0.00 | 0.00 | 0.00 | 99 | 1015.9 |
| 20260831111744 | 77 | 50 | 0.0 | 1.0 | 0.00 | 0.00 | 0.00 | 99 | 1016.0 |
| 20260831111241 | 77 | 205 | 0.0 | 0.0 | 0.00 | 0.00 | 0.00 | 99 | 1016.0 |
| 20260831110736 | 77 | 220 | 0.0 | 1.0 | 0.00 | 0.00 | 0.00 | 99 | 1015.8 |
| 20260831110231 | 77 | 0 | 0.0 | 1.0 | 0.00 | 0.00 | 0.00 | 99 | 1016.2 |
| 20260831105730 | 78 | 15 | 0.0 | 1.0 | 0.00 | 0.00 | 0.00 | 99 | 1015.9 |
| 20260831105226 | 78 | 230 | 0.0 | 1.0 | 0.00 | 0.00 | 0.00 | 99 | 1016.2 |
| 20260831104720 | 78 | 242 | 0.0 | 2.0 | 0.00 | 0.00 | 0.00 | 99 | 1015.8 |
| 20260831104217 | 78 | 217 | 0.0 | 1.0 | 0.00 | 0.00 | 0.00 | 99 | 1015.9 |
| 20260831103716 | 78 | 209 | 0.0 | 1.0 | 0.00 | 0.00 | 0.00 | 99 | 1016.1 |
| 20260831103213 | 78 | 164 | 0.0 | 1.0 | 0.00 | 0.00 | 0.00 | 99 | 1016.1 |
| 20260831102712 | 78 | 304 | 0.0 | 1.0 | 0.00 | 0.00 | 0.00 | 99 | 1016.2 |
| 20260831102207 | 78 | 242 | 0.0 | 0.0 | 0.00 | 0.00 | 0.00 | 99 | 1016.0 |
| 20260831101702 | 78 | 147 | 0.0 | 1.0 | 0.00 | 0.00 | 0.00 | 99 | 1016.0 |
| 20260831101158 | 78 | 309 | 0.0 | 1.0 | 0.00 | 0.00 | 0.00 | 99 | 1016.2 |
| 20260831100654 | 78 | 343 | 0.0 | 0.0 | 0.00 | 0.00 | 0.00 | 99 | 1016.1 |
| 20260831100150 | 78 | 343 | 0.0 | 1.0 | 0.00 | 0.00 | 0.00 | 99 | 1016.2 |
| 20260831095648 | 78 | 242 | 0.0 | 1.0 | 0.00 | 0.00 | 0.00 | 99 | 1016.0 |
| 20260831095143 | 78 | 230 | 0.0 | 1.0 | 0.00 | 0.00 | 0.00 | 98 | 1015.9 |
| 20260831094638 | 78 | 269 | 0.0 | 0.0 | 0.00 | 0.00 | 0.00 | 98 | 1016.2 |
| 20260831094135 | 78 | 269 | 0.0 | 1.0 | 0.00 | 0.00 | 0.00 | 98 | 1016.0 |
| 20260831093630 | 78 | 186 | 0.0 | 1.0 | 0.00 | 0.00 | 0.00 | 98 | 1016.3 |
| 20260831093126 | 78 | 230 | 0.0 | 1.0 | 0.00 | 0.00 | 0.00 | 98 | 1016.1 |
| 20260831092622 | 78 | 180 | 0.0 | 0.0 | 0.00 | 0.00 | 0.00 | 98 | 1015.9 |
| 20260831092117 | 79 | 180 | 0.0 | 0.0 | 0.00 | 0.00 | 0.00 | 97 | 1015.9 |
| 20260831091616 | 79 | 186 | 0.0 | 0.0 | 0.00 | 0.00 | 0.00 | 97 | 1015.9 |
| 20260831091112 | 79 | 230 | 0.0 | 0.0 | 0.00 | 0.00 | 0.00 | 97 | 1015.9 |
| 20260831090608 | 79 | 230 | 0.0 | 0.0 | 0.00 | 0.00 | 0.00 | 97 | 1015.8 |
| 20260831090104 | 79 | 230 | 0.0 | 0.0 | 0.00 | 0.00 | 0.00 | 96 | 1015.8 |
| 20260831085559 | 79 | 230 | 0.0 | 0.0 | 0.00 | 0.00 | 0.00 | 96 | 1015.8 |
| 20260831085054 | 79 | 230 | 0.0 | 0.0 | 0.00 | 0.00 | 0.00 | 96 | 1015.9 |
| 20260831084550 | 79 | 230 | 0.0 | 0.0 | 0.00 | 0.00 | 0.00 | 96 | 1015.9 |
| 20260831084046 | 79 | 230 | 0.0 | 1.0 | 0.00 | 0.00 | 0.00 | 96 | 1016.1 |
| 20260831083542 | 80 | 304 | 0.0 | 1.0 | 0.00 | 0.00 | 0.00 | 96 | 1016.1 |
| 20260831083036 | 80 | 217 | 0.0 | 0.0 | 0.00 | 0.00 | 0.00 | 95 | 1015.9 |
| 20260831082535 | 80 | 217 | 0.0 | 0.0 | 0.00 | 0.00 | 0.00 | 95 | 1016.1 |
| 20260831082031 | 80 | 242 | 0.0 | 1.0 | 0.00 | 0.00 | 0.00 | 95 | 1016.1 |
| 20260831081527 | 80 | 293 | 0.0 | 1.0 | 0.00 | 0.00 | 0.00 | 95 | 1016.0 |
| 20260831081023 | 80 | 224 | 0.0 | 1.0 | 0.00 | 0.00 | 0.00 | 95 | 1016.2 |
| 20260831080522 | 80 | 217 | 0.0 | 1.0 | 0.00 | 0.00 | 0.00 | 95 | 1016.2 |
| 20260831080018 | 80 | 205 | 0.0 | 0.0 | 0.00 | 0.00 | 0.00 | 95 | 1016.4 |
| 20260831075513 | 80 | 210 | 0.0 | 1.0 | 0.00 | 0.00 | 0.00 | 95 | 1016.3 |
| 20260831075009 | 80 | 235 | 0.0 | 0.0 | 0.00 | 0.00 | 0.00 | 94 | 1016.4 |
| 20260831074508 | 80 | 235 | 0.0 | 1.0 | 0.00 | 0.00 | 0.00 | 94 | 1016.3 |
| 20260831074003 | 80 | 240 | 0.0 | 1.0 | 0.00 | 0.00 | 0.00 | 94 | 1016.4 |
| 20260831073503 | 80 | 235 | 0.0 | 2.0 | 0.00 | 0.00 | 0.00 | 93 | 1016.3 |
| 20260831073002 | 80 | 242 | 0.0 | 1.0 | 0.00 | 0.00 | 0.00 | 93 | 1016.2 |
| 20260831072457 | 81 | 154 | 0.0 | 1.0 | 0.00 | 0.00 | 0.00 | 93 | 1016.3 |
| 20260831071954 | 81 | 209 | 1.0 | 2.0 | 0.00 | 0.00 | 0.00 | 93 | 1016.1 |
| 20260831071453 | 81 | 205 | 0.0 | 0.0 | 0.00 | 0.00 | 0.00 | 92 | 1016.1 |
| 20260831070948 | 81 | 208 | 0.0 | 2.0 | 0.00 | 0.00 | 0.00 | 92 | 1016.3 |
| 20260831070447 | 81 | 230 | 0.0 | 0.0 | 0.00 | 0.00 | 0.00 | 92 | 1016.5 |
| 20260831065946 | 82 | 235 | 0.0 | 2.0 | 0.00 | 0.00 | 0.00 | 91 | 1016.5 |
| 20260831065445 | 82 | 205 | 0.0 | 2.0 | 0.00 | 0.00 | 0.00 | 91 | 1016.2 |
| 20260831064940 | 82 | 230 | 0.0 | 1.0 | 0.00 | 0.00 | 0.00 | 91 | 1016.2 |
| 20260831064435 | 82 | 256 | 0.0 | 3.0 | 0.00 | 0.00 | 0.00 | 91 | 1016.4 |
| 20260831063931 | 82 | 220 | 0.0 | 3.0 | 0.00 | 0.00 | 0.00 | 91 | 1016.5 |
| 20260831063426 | 82 | 155 | 0.0 | 3.0 | 0.00 | 0.00 | 0.00 | 91 | 1016.4 |
| 20260831062925 | 81 | 104 | 0.0 | 1.0 | 0.00 | 0.00 | 0.00 | 92 | 1016.5 |
| 20260831062421 | 81 | 130 | 0.0 | 1.0 | 0.00 | 0.00 | 0.00 | 92 | 1016.5 |
| 20260831061920 | 81 | 217 | 0.0 | 1.0 | 0.00 | 0.00 | 0.00 | 91 | 1016.5 |
| 20260831061419 | 82 | 217 | 0.0 | 1.0 | 0.00 | 0.00 | 0.00 | 91 | 1016.4 |
| 20260831060915 | 82 | 242 | 0.0 | 1.0 | 0.00 | 0.00 | 0.00 | 90 | 1016.5 |
| 20260831060410 | 82 | 157 | 0.0 | 1.0 | 0.00 | 0.00 | 0.00 | 90 | 1016.5 |
| 20260831055909 | 82 | 251 | 0.0 | 1.0 | 0.00 | 0.00 | 0.00 | 90 | 1016.5 |
| 20260831055404 | 82 | 89 | 0.0 | 1.0 | 0.00 | 0.00 | 0.00 | 90 | 1016.8 |
| 20260831054900 | 82 | 217 | 0.0 | 1.0 | 0.00 | 0.00 | 0.00 | 89 | 1016.4 |
| 20260831054354 | 82 | 89 | 0.0 | 3.0 | 0.00 | 0.00 | 0.00 | 89 | 1016.5 |
| 20260831053854 | 82 | 230 | 0.0 | 1.0 | 0.00 | 0.00 | 0.00 | 89 | 1016.5 |
| 20260831053352 | 82 | 164 | 0.0 | 3.0 | 0.00 | 0.00 | 0.00 | 89 | 1016.3 |
| 20260831052847 | 82 | 104 | 0.0 | 2.0 | 0.00 | 0.00 | 0.00 | 89 | 1016.4 |
| 20260831052346 | 82 | 230 | 0.0 | 3.0 | 0.00 | 0.00 | 0.00 | 88 | 1016.4 |
| 20260831051845 | 82 | 129 | 0.0 | 1.0 | 0.00 | 0.00 | 0.00 | 88 | 1016.6 |
| 20260831051343 | 82 | 230 | 0.0 | 0.0 | 0.00 | 0.00 | 0.00 | 88 | 1016.5 |
| 20260831050838 | 82 | 238 | 0.0 | 3.0 | 0.00 | 0.00 | 0.00 | 88 | 1016.4 |
| 20260831050337 | 82 | 253 | 0.0 | 2.0 | 0.00 | 0.00 | 0.00 | 88 | 1016.2 |
| 20260831045832 | 82 | 255 | 0.0 | 0.0 | 0.00 | 0.00 | 0.00 | 87 | 1016.5 |
| 20260831045326 | 83 | 217 | 0.0 | 2.0 | 0.00 | 0.00 | 0.00 | 87 | 1016.4 |
| 20260831044821 | 83 | 106 | 0.0 | 2.0 | 0.00 | 0.00 | 0.00 | 86 | 1016.4 |
| 20260831044316 | 83 | 113 | 0.0 | 3.0 | 0.00 | 0.00 | 0.00 | 86 | 1016.2 |
| 20260831043812 | 83 | 99 | 2.0 | 3.0 | 0.00 | 0.00 | 0.00 | 85 | 1016.3 |
| 20260831043312 | 83 | 202 | 0.0 | 2.0 | 0.00 | 0.00 | 0.00 | 85 | 1016.1 |
| 20260831042807 | 83 | 217 | 0.0 | 2.0 | 0.00 | 0.00 | 0.00 | 85 | 1016.4 |
| 20260831042307 | 83 | 205 | 0.0 | 2.0 | 0.00 | 0.00 | 0.00 | 84 | 1016.2 |
| 20260831041802 | 83 | 139 | 1.0 | 3.0 | 0.00 | 0.00 | 0.00 | 84 | 1016.3 |
| 20260831041301 | 83 | 224 | 0.0 | 4.0 | 0.00 | 0.00 | 0.00 | 84 | 1016.4 |
| 20260831040756 | 83 | 290 | 0.0 | 2.0 | 0.00 | 0.00 | 0.00 | 84 | 1016.2 |
| 20260831040255 | 84 | 224 | 0.0 | 2.0 | 0.00 | 0.00 | 0.00 | 84 | 1016.2 |
| 20260831035754 | 84 | 180 | 0.0 | 2.0 | 0.00 | 0.00 | 0.00 | 84 | 1016.1 |
| 20260831035253 | 83 | 184 | 0.0 | 2.0 | 0.00 | 0.00 | 0.00 | 84 | 1016.2 |
| 20260831034753 | 83 | 218 | 0.0 | 1.0 | 0.00 | 0.00 | 0.00 | 83 | 1016.2 |
| 20260831034248 | 84 | 191 | 1.0 | 3.0 | 0.00 | 0.00 | 0.00 | 83 | 1016.0 |
| 20260831033743 | 84 | 226 | 1.0 | 5.0 | 0.00 | 0.00 | 0.00 | 83 | 1015.8 |
| 20260831033243 | 84 | 196 | 1.0 | 3.0 | 0.00 | 0.00 | 0.00 | 83 | 1016.1 |
| 20260831032738 | 84 | 212 | 0.0 | 3.0 | 0.00 | 0.00 | 0.00 | 83 | 1016.0 |
| 20260831032233 | 84 | 151 | 0.0 | 3.0 | 0.00 | 0.00 | 0.00 | 82 | 1015.7 |
| 20260831031728 | 84 | 211 | 0.0 | 3.0 | 0.00 | 0.00 | 0.00 | 82 | 1015.9 |
| 20260831031223 | 84 | 216 | 0.0 | 2.0 | 0.00 | 0.00 | 0.00 | 81 | 1015.9 |
| 20260831030722 | 84 | 126 | 2.0 | 3.0 | 0.00 | 0.00 | 0.00 | 81 | 1015.6 |
| 20260831030221 | 84 | 218 | 1.0 | 2.0 | 0.00 | 0.00 | 0.00 | 81 | 1015.8 |
| 20260831025720 | 84 | 148 | 3.0 | 4.0 | 0.00 | 0.00 | 0.00 | 81 | 1015.8 |
| 20260831025214 | 85 | 185 | 0.0 | 3.0 | 0.00 | 0.00 | 0.00 | 81 | 1015.4 |
| 20260831024710 | 85 | 261 | 0.0 | 4.0 | 0.00 | 0.00 | 0.00 | 80 | 1015.6 |
| 20260831024204 | 85 | 145 | 2.0 | 3.0 | 0.00 | 0.00 | 0.00 | 80 | 1015.9 |
| 20260831023702 | 85 | 242 | 0.0 | 3.0 | 0.00 | 0.00 | 0.00 | 80 | 1015.7 |
| 20260831023201 | 85 | 96 | 1.0 | 2.0 | 0.00 | 0.00 | 0.00 | 80 | 1015.5 |
| 20260831022656 | 85 | 190 | 1.0 | 3.0 | 0.00 | 0.00 | 0.00 | 79 | 1015.3 |
| 20260831022151 | 85 | 158 | 2.0 | 3.0 | 0.00 | 0.00 | 0.00 | 78 | 1015.1 |
| 20260831021650 | 85 | 256 | 1.0 | 3.0 | 0.00 | 0.00 | 0.00 | 78 | 1015.3 |
| 20260831021146 | 86 | 230 | 1.0 | 3.0 | 0.00 | 0.00 | 0.00 | 78 | 1015.1 |
| 20260831020642 | 86 | 212 | 0.0 | 2.0 | 0.00 | 0.00 | 0.00 | 78 | 1015.2 |
| 20260831020136 | 86 | 217 | 0.0 | 3.0 | 0.00 | 0.00 | 0.00 | 78 | 1015.0 |
| 20260831015632 | 86 | 239 | 1.0 | 2.0 | 0.00 | 0.00 | 0.00 | 77 | 1015.1 |
| 20260831015131 | 86 | 243 | 0.0 | 3.0 | 0.00 | 0.00 | 0.00 | 77 | 1015.0 |
| 20260831014626 | 86 | 220 | 2.0 | 4.0 | 0.00 | 0.00 | 0.00 | 76 | 1015.1 |
| 20260831014121 | 86 | 237 | 0.0 | 2.0 | 0.00 | 0.00 | 0.00 | 76 | 1014.8 |
| 20260831013618 | 86 | 261 | 2.0 | 2.0 | 0.00 | 0.00 | 0.00 | 76 | 1015.1 |
| 20260831013117 | 86 | 205 | 0.0 | 5.0 | 0.00 | 0.00 | 0.00 | 75 | 1015.0 |
| 20260831012612 | 87 | 265 | 1.0 | 3.0 | 0.00 | 0.00 | 0.00 | 75 | 1014.8 |
| 20260831012107 | 87 | 196 | 1.0 | 4.0 | 0.00 | 0.00 | 0.00 | 75 | 1014.8 |
| 20260831011606 | 87 | 223 | 2.0 | 3.0 | 0.00 | 0.00 | 0.00 | 73 | 1014.8 |
| 20260831011102 | 87 | 233 | 2.0 | 5.0 | 0.00 | 0.00 | 0.00 | 73 | 1014.6 |
| 20260831010557 | 87 | 246 | 2.0 | 7.0 | 0.00 | 0.00 | 0.00 | 72 | 1014.5 |